Weather History for Bentonville, AR

Change the Weather History Date:

Friday, December 2, 2011

  Actual Average Record
Temperature  
Mean Temperature 44 °F -  
Max Temperature 51 °F 51 °F 75 °F (2012)
Min Temperature 37 °F 29 °F 8 °F (1985)
Degree Days  
Heating Degree Days 21    
Moisture  
Dew Point 34 °F    
Average Humidity 64    
Maximum Humidity 76    
Minimum Humidity 57    
Precipitation  
Precipitation 0.00 in - - ()
Sea Level Pressure  
Sea Level Pressure 30.30 in    
Wind  
Wind Speed 7 mph (East)    
Max Wind Speed 10 mph    
Max Gust Speed -    
Visibility 10 miles    
Events      
Averages and records for this station are not official NWS values.
T = Trace of Precipitation, MM = Missing Value Source: NWS Daily Summary

Daily Weather History Graph

Daily Weather History Graph

Search for Another Location

Airport:

Trip Planner

Search our weather history database for the weather conditions in past years. The results will help you decide how hot, cold, wet, or windy it might be!

Date:

Astronomy

Dec. 02, 2011 Rise Set
Actual Time 7:10 AM CST 5:01 PM CST
Civil Twilight 6:42 AM CST 5:30 PM CST
Nautical Twilight 6:10 AM CST 6:02 PM CST
Astronomical Twilight 5:39 AM CST 6:33 PM CST
Moon 12:30 PM CST (12/2) No Moon Set
Length of Visible Light 10h 47m
Length of Day
9h 51m
First Quarter, 53% of the Moon is Illuminated
Dec 2
First Quarter
Dec 10
Full
Dec 17
Last Quarter
Dec 24
New
Jan 1
First Quarter

Hourly Weather History & Observations

Time (CST) Temp. Windchill Dew Point Humidity Pressure Visibility Wind Dir Wind Speed Gust Speed Precip Events Conditions
12:15 AM 44.6 °F 40.7 °F 30.2 °F 57% 30.34 in 10.0 mi North 6.9 mph - N/A   Overcast
12:35 AM 44.6 °F 39.7 °F 30.2 °F 57% 30.35 in 10.0 mi North 9.2 mph - N/A   Overcast
12:55 AM 44.6 °F 41.4 °F 30.2 °F 57% 30.35 in 10.0 mi NNW 5.8 mph - N/A   Overcast
1:15 AM 44.6 °F 41.4 °F 30.2 °F 57% 30.35 in 10.0 mi NNW 5.8 mph - N/A   Overcast
1:35 AM 42.8 °F 37.5 °F 30.2 °F 61% 30.35 in 10.0 mi North 9.2 mph - N/A   Overcast
1:55 AM 42.8 °F 37.0 °F 30.2 °F 61% 30.36 in 10.0 mi North 10.4 mph - N/A   Overcast
2:15 AM 42.8 °F 38.0 °F 30.2 °F 61% 30.37 in 10.0 mi North 8.1 mph - N/A   Overcast
2:35 AM 42.8 °F 37.0 °F 28.4 °F 57% 30.37 in 10.0 mi North 10.4 mph - N/A   Overcast
2:55 AM 41.0 °F 37.1 °F 28.4 °F 61% 30.36 in 10.0 mi NNE 5.8 mph - N/A   Overcast
3:15 AM 41.0 °F 35.8 °F 28.4 °F 61% 30.36 in 10.0 mi NNE 8.1 mph - N/A   Overcast
3:35 AM 41.0 °F 36.4 °F 28.4 °F 61% 30.36 in 10.0 mi North 6.9 mph - N/A   Overcast
3:55 AM 41.0 °F 35.2 °F 28.4 °F 61% 30.37 in 10.0 mi North 9.2 mph - N/A   Overcast
4:15 AM 39.2 °F 34.2 °F 28.4 °F 65% 30.36 in 10.0 mi NE 6.9 mph - N/A   Overcast
5:15 AM 39.2 °F 34.2 °F 28.4 °F 65% 30.35 in 10.0 mi ENE 6.9 mph - N/A   Overcast
5:55 AM 39.2 °F 34.2 °F 28.4 °F 65% 30.35 in 10.0 mi ENE 6.9 mph - N/A   Overcast
6:15 AM 37.4 °F 34.9 °F 28.4 °F 70% 30.35 in 10.0 mi NE 3.5 mph - N/A   Mostly Cloudy
6:35 AM 39.2 °F 35.0 °F 28.4 °F 65% 30.35 in 10.0 mi NE 5.8 mph - N/A   Mostly Cloudy
6:55 AM 39.2 °F 33.6 °F 28.4 °F 65% 30.34 in 10.0 mi ENE 8.1 mph - N/A   Overcast
7:15 AM 39.2 °F 33.6 °F 30.2 °F 70% 30.33 in 10.0 mi NE 8.1 mph - N/A   Overcast
7:35 AM 39.2 °F 35.0 °F 30.2 °F 70% 30.35 in 10.0 mi ENE 5.8 mph - N/A   Mostly Cloudy
7:55 AM 39.2 °F 35.0 °F 30.2 °F 70% 30.35 in 10.0 mi NNE 5.8 mph - N/A   Partly Cloudy
8:15 AM 41.0 °F 38.0 °F 30.2 °F 65% 30.36 in 10.0 mi NE 4.6 mph - N/A   Partly Cloudy
8:55 AM 42.8 °F 39.3 °F 30.2 °F 61% 30.35 in 10.0 mi East 5.8 mph - N/A   Overcast
9:15 AM 44.6 °F 41.4 °F 32.0 °F 61% 30.35 in 10.0 mi East 5.8 mph - N/A   Overcast
9:35 AM 44.6 °F 40.7 °F 32.0 °F 61% 30.36 in 10.0 mi East 6.9 mph - N/A   Overcast
9:55 AM 44.6 °F 41.4 °F 32.0 °F 61% 30.36 in 10.0 mi East 5.8 mph - N/A   Overcast
10:15 AM 44.6 °F 41.4 °F 33.8 °F 66% 30.35 in 10.0 mi East 5.8 mph - N/A   Overcast
10:35 AM 44.6 °F 40.7 °F 32.0 °F 61% 30.35 in 10.0 mi East 6.9 mph - N/A   Overcast
10:55 AM 46.4 °F 43.5 °F 33.8 °F 62% 30.34 in 10.0 mi ESE 5.8 mph - N/A   Overcast
11:15 AM 46.4 °F 43.5 °F 33.8 °F 62% 30.34 in 10.0 mi ESE 5.8 mph - N/A   Overcast
11:35 AM 46.4 °F 45.2 °F 33.8 °F 62% 30.33 in 10.0 mi ESE 3.5 mph - N/A   Overcast
11:55 AM 46.4 °F 45.2 °F 33.8 °F 62% 30.32 in 10.0 mi SE 3.5 mph - N/A   Overcast
12:15 PM 46.4 °F 44.3 °F 33.8 °F 62% 30.31 in 10.0 mi ESE 4.6 mph - N/A   Overcast
12:35 PM 46.4 °F 42.9 °F 33.8 °F 62% 30.29 in 10.0 mi ESE 6.9 mph - N/A   Overcast
12:55 PM 46.4 °F 44.3 °F 33.8 °F 62% 30.28 in 10.0 mi ESE 4.6 mph - N/A   Overcast
1:15 PM 46.4 °F 42.9 °F 33.8 °F 62% 30.28 in 10.0 mi ESE 6.9 mph - N/A   Overcast
1:35 PM 48.2 °F - 33.8 °F 58% 30.27 in 10.0 mi ESE 5.8 mph - N/A   Overcast
1:55 PM 48.2 °F - 33.8 °F 58% 30.27 in 10.0 mi SE 3.5 mph - N/A   Overcast
2:15 PM 48.2 °F - 35.6 °F 62% 30.26 in 10.0 mi ESE 3.5 mph - N/A   Overcast
2:55 PM 46.4 °F 45.2 °F 39.2 °F 76% 30.25 in 10.0 mi East 3.5 mph - N/A   Overcast
3:35 PM 48.2 °F - 39.2 °F 71% 30.25 in 10.0 mi Calm Calm - N/A   Overcast
3:55 PM 48.2 °F - 39.2 °F 71% 30.25 in 10.0 mi ESE 4.6 mph - N/A   Overcast
4:35 PM 48.2 °F - 39.2 °F 71% 30.24 in 10.0 mi ESE 3.5 mph - N/A   Overcast
4:55 PM 48.2 °F - 39.2 °F 71% 30.25 in 10.0 mi ESE 3.5 mph - N/A   Mostly Cloudy
5:35 PM 48.2 °F - 39.2 °F 71% 30.24 in 10.0 mi SE 4.6 mph - N/A   Mostly Cloudy
5:55 PM 48.2 °F - 39.2 °F 71% 30.24 in 10.0 mi Calm Calm - N/A   Overcast
6:15 PM 48.2 °F - 41.0 °F 76% 30.24 in 10.0 mi SE 3.5 mph - N/A   Overcast
6:35 PM 48.2 °F - 41.0 °F 76% 30.24 in 10.0 mi SE 3.5 mph - N/A   Overcast
6:55 PM 50.0 °F - 41.0 °F 71% 30.25 in 10.0 mi SSE 4.6 mph - N/A   Overcast
7:15 PM 48.2 °F - 41.0 °F 76% 30.25 in 10.0 mi SE 5.8 mph - N/A   Overcast
7:35 PM 50.0 °F - 41.0 °F 71% 30.25 in 10.0 mi SE 5.8 mph - N/A   Overcast
8:15 PM 48.2 °F - 39.2 °F 71% 30.25 in 10.0 mi SSE 6.9 mph - N/A   Scattered Clouds
8:35 PM 50.0 °F - 39.2 °F 66% 30.24 in 10.0 mi SE 8.1 mph - N/A   Partly Cloudy
8:55 PM 50.0 °F - 39.2 °F 66% 30.24 in 10.0 mi SE 8.1 mph - N/A   Mostly Cloudy
9:15 PM 51.8 °F - 39.2 °F 62% 30.24 in 10.0 mi SE 8.1 mph - N/A   Overcast
9:35 PM 51.8 °F - 39.2 °F 62% 30.24 in 10.0 mi SE 8.1 mph - N/A   Overcast
9:55 PM 51.8 °F - 39.2 °F 62% 30.23 in 10.0 mi SE 8.1 mph - N/A   Overcast
10:15 PM 51.8 °F - 39.2 °F 62% 30.24 in 10.0 mi SSE 8.1 mph - N/A   Overcast
10:35 PM 51.8 °F - 39.2 °F 62% 30.23 in 10.0 mi SSE 8.1 mph - N/A   Overcast
10:55 PM 51.8 °F - 39.2 °F 62% 30.23 in 10.0 mi SSE 4.6 mph - N/A   Overcast
11:15 PM 51.8 °F - 39.2 °F 62% 30.22 in 10.0 mi SSE 9.2 mph - N/A   Overcast
11:35 PM 51.8 °F - 37.4 °F 58% 30.21 in 10.0 mi SE 9.2 mph - N/A   Overcast
11:55 PM 51.8 °F - 39.2 °F 62% 30.21 in 10.0 mi SSE 8.1 mph - N/A   Overcast